Back to Top

Language: 

My Weather Underground Personal Weather Station Historical Data with Graphs...

Delerius Weather Station Historical Data
Daily Summary for April 25, 2017 Units:  Metric    English   Both
« Previous Day
Next Day »
Daily Weekly Monthly Yearly Custom
  High: Low: Average:
Temperature: 9.6 °C -0.3 °C 4.6 °C
Dew Point: 3.9 °C -3.3 °C -0.2 °C
Humidity: 83 % 54 % 72 %
Wind Speed: 19.3 km/h 1.6 km/h 10.5 km/h
Wind Gust: 41.8 km/h - -
Wind:- - WNW
Pressure: 1017.5 hPa 1011.4 hPa -
Precipitation: 0.51 mm    
Historical Graphs
 
 
Tabular Data for April 25, 2017
Time Temperature Dew Point Pressure Wind Wind Speed Wind Gust Humidity Rainfall Rate (Hourly) solar Conditions
00:04 2.1 °C -1.7 °C 1012.4 hPa WNW 9.7 km/h 20.9 km/h 76 % 0 mm 0 W/m2
00:09 2.1 °C -1.7 °C 1012.4 hPa WNW 8 km/h 16.1 km/h 76 % 0 mm 0 W/m2
00:14 2 °C -1.8 °C 1012.4 hPa WNW 6.4 km/h 16.1 km/h 76 % 0 mm 0 W/m2
00:19 1.9 °C -1.9 °C 1012.4 hPa WNW 6.4 km/h 14.5 km/h 76 % 0 mm 0 W/m2
00:24 1.9 °C -1.9 °C 1012.1 hPa WNW 8 km/h 16.1 km/h 76 % 0 mm 0 W/m2
00:29 1.8 °C -2 °C 1012.1 hPa WNW 9.7 km/h 16.1 km/h 76 % 0 mm 0 W/m2
00:34 1.8 °C -2 °C 1012.1 hPa WNW 8 km/h 16.1 km/h 76 % 0 mm 0 W/m2
00:39 1.7 °C -2.1 °C 1012.1 hPa WNW 8 km/h 14.5 km/h 76 % 0 mm 0 W/m2
00:44 1.7 °C -2.1 °C 1012.1 hPa WNW 8 km/h 14.5 km/h 76 % 0 mm 0 W/m2
00:49 1.6 °C -2.2 °C 1012.1 hPa WNW 8 km/h 14.5 km/h 76 % 0 mm 0 W/m2
00:54 1.4 °C -2.2 °C 1012.1 hPa West 8 km/h 16.1 km/h 77 % 0 mm 0 W/m2
00:59 1.3 °C -2.3 °C 1011.7 hPa WNW 8 km/h 16.1 km/h 77 % 0 mm 0 W/m2
01:04 1.3 °C -2.3 °C 1011.7 hPa WNW 6.4 km/h 14.5 km/h 77 % 0 mm 0 W/m2
01:09 1.2 °C -2.4 °C 1011.7 hPa WNW 6.4 km/h 14.5 km/h 77 % 0 mm 0 W/m2
01:14 1.2 °C -2.4 °C 1011.7 hPa WNW 6.4 km/h 16.1 km/h 77 % 0 mm 0 W/m2
01:19 1.2 °C -2.4 °C 1011.7 hPa WNW 8 km/h 16.1 km/h 77 % 0 mm 0 W/m2
01:24 1.2 °C -2.6 °C 1011.7 hPa WNW 9.7 km/h 20.9 km/h 76 % 0 mm 0 W/m2
01:29 1.3 °C -2.4 °C 1011.7 hPa WNW 9.7 km/h 20.9 km/h 76 % 0 mm 0 W/m2
01:34 1.3 °C -2.7 °C 1011.7 hPa WNW 11.3 km/h 19.3 km/h 75 % 0 mm 0 W/m2
01:39 1.3 °C -2.7 °C 1011.7 hPa WNW 11.3 km/h 19.3 km/h 75 % 0 mm 0 W/m2
01:44 1.3 °C -2.7 °C 1011.7 hPa WNW 11.3 km/h 19.3 km/h 75 % 0 mm 0 W/m2
01:49 1.3 °C -2.8 °C 1011.4 hPa WNW 11.3 km/h 17.7 km/h 74 % 0 mm 0 W/m2
01:54 1.3 °C -2.8 °C 1011.4 hPa WNW 11.3 km/h 17.7 km/h 74 % 0 mm 0 W/m2
01:59 1.2 °C -2.9 °C 1011.4 hPa WNW 11.3 km/h 16.1 km/h 74 % 0 mm 0 W/m2
02:04 1.2 °C -2.9 °C 1011.4 hPa WNW 9.7 km/h 17.7 km/h 74 % 0 mm 0 W/m2
02:09 1.1 °C -3 °C 1011.4 hPa WNW 9.7 km/h 17.7 km/h 74 % 0 mm 0 W/m2
02:14 1.1 °C -3 °C 1011.4 hPa WNW 11.3 km/h 17.7 km/h 74 % 0 mm 0 W/m2
02:25 0.9 °C -3.1 °C 1011.4 hPa WNW 9.7 km/h 16.1 km/h 75 % 0 mm 0 W/m2
02:30 0.8 °C -3.1 °C 1011.4 hPa WNW 9.7 km/h 16.1 km/h 75 % 0 mm 0 W/m2
02:33 0.8 °C -3.1 °C 1011.4 hPa WNW 9.7 km/h 16.1 km/h 75 % 0 mm 0 W/m2
02:38 0.8 °C -3.1 °C 1011.4 hPa NW 9.7 km/h 19.3 km/h 75 % 0 mm 0 W/m2
02:43 0.8 °C -3.1 °C 1011.4 hPa NW 11.3 km/h 19.3 km/h 75 % 0 mm 0 W/m2
02:48 0.9 °C -3.1 °C 1011.4 hPa NW 11.3 km/h 19.3 km/h 75 % 0 mm 0 W/m2
02:53 0.9 °C -3.2 °C 1011.7 hPa NW 9.7 km/h 19.3 km/h 74 % 0 mm 0 W/m2
02:58 1 °C -3.1 °C 1011.7 hPa NW 9.7 km/h 17.7 km/h 74 % 0 mm 0 W/m2
03:03 1.1 °C -3.2 °C 1011.7 hPa NW 9.7 km/h 17.7 km/h 73 % 0 mm 0 W/m2
03:08 1.1 °C -3.2 °C 1011.7 hPa NW 9.7 km/h 16.1 km/h 73 % 0 mm 0 W/m2
03:13 1.1 °C -3.2 °C 1011.7 hPa NW 9.7 km/h 19.3 km/h 73 % 0 mm 0 W/m2
03:18 1.1 °C -3 °C 1011.7 hPa NW 8 km/h 19.3 km/h 74 % 0 mm 0 W/m2
03:23 1 °C -3.1 °C 1011.7 hPa WNW 8 km/h 16.1 km/h 74 % 0 mm 0 W/m2
03:28 0.9 °C -3.2 °C 1011.7 hPa NW 6.4 km/h 14.5 km/h 74 % 0 mm 0 W/m2
03:33 0.9 °C -3.2 °C 1011.7 hPa NW 4.8 km/h 14.5 km/h 74 % 0 mm 0 W/m2
03:38 0.8 °C -3.3 °C 1011.7 hPa NW 6.4 km/h 12.9 km/h 74 % 0 mm 0 W/m2
03:43 0.8 °C -3.1 °C 1011.7 hPa NW 6.4 km/h 12.9 km/h 75 % 0 mm 0 W/m2
03:48 0.7 °C -3.2 °C 1011.7 hPa NW 4.8 km/h 12.9 km/h 75 % 0 mm 0 W/m2
03:53 0.6 °C -3.3 °C 1012.1 hPa NW 4.8 km/h 11.3 km/h 75 % 0 mm 0 W/m2
03:58 0.6 °C -3.2 °C 1011.7 hPa NW 4.8 km/h 11.3 km/h 76 % 0 mm 0 W/m2
04:03 0.5 °C -3.2 °C 1012.1 hPa NW 4.8 km/h 11.3 km/h 76 % 0 mm 0 W/m2
04:08 0.4 °C -3.3 °C 1012.1 hPa NW 6.4 km/h 16.1 km/h 76 % 0 mm 0 W/m2
04:13 0.4 °C -3.2 °C 1012.1 hPa NW 6.4 km/h 16.1 km/h 77 % 0 mm 0 W/m2
04:18 0.4 °C -3.2 °C 1012.1 hPa NW 6.4 km/h 12.9 km/h 77 % 0 mm 0 W/m2
04:23 0.4 °C -3.2 °C 1012.1 hPa WNW 4.8 km/h 12.9 km/h 77 % 0 mm 0 W/m2
04:28 0.3 °C -3.3 °C 1012.1 hPa NW 3.2 km/h 11.3 km/h 77 % 0 mm 0 W/m2
04:33 0.3 °C -3.1 °C 1012.1 hPa WNW 4.8 km/h 11.3 km/h 78 % 0 mm 0 W/m2
04:38 0.2 °C -3.2 °C 1012.1 hPa WNW 4.8 km/h 9.7 km/h 78 % 0 mm 0 W/m2
04:43 0.2 °C -3.2 °C 1012.1 hPa WNW 4.8 km/h 11.3 km/h 78 % 0 mm 0 W/m2
04:48 0.1 °C -3.1 °C 1012.1 hPa NW 4.8 km/h 11.3 km/h 79 % 0 mm 0 W/m2
04:53 0.1 °C -3.1 °C 1012.1 hPa NW 6.4 km/h 11.3 km/h 79 % 0 mm 0 W/m2
04:58 0.1 °C -3.1 °C 1012.4 hPa NW 8 km/h 12.9 km/h 79 % 0 mm 0 W/m2
05:03 0.1 °C -3.1 °C 1012.1 hPa NW 8 km/h 12.9 km/h 79 % 0 mm 0 W/m2
05:08 0.1 °C -3.1 °C 1012.4 hPa NW 8 km/h 14.5 km/h 79 % 0 mm 0 W/m2
05:13 0.1 °C -3.1 °C 1012.4 hPa NW 8 km/h 14.5 km/h 79 % 0 mm 0 W/m2
05:18 0.1 °C -3.1 °C 1012.4 hPa NW 8 km/h 14.5 km/h 79 % 0 mm 0 W/m2
05:23 0.1 °C -2.9 °C 1012.4 hPa NW 8 km/h 14.5 km/h 80 % 0 mm 0 W/m2
05:28 0.1 °C -2.9 °C 1012.4 hPa WNW 8 km/h 14.5 km/h 80 % 0 mm 0 W/m2
05:33 0 °C -3.1 °C 1012.4 hPa NW 6.4 km/h 12.9 km/h 80 % 0 mm 0 W/m2
05:38 0 °C -3.1 °C 1012.8 hPa NW 6.4 km/h 12.9 km/h 80 % 0 mm 0 W/m2
05:43 0 °C -3.1 °C 1012.8 hPa NW 6.4 km/h 12.9 km/h 80 % 0 mm 5 W/m2
05:48 0 °C -3.1 °C 1012.8 hPa WNW 4.8 km/h 12.9 km/h 80 % 0 mm 5 W/m2
05:54 -0.1 °C -3.1 °C 1012.8 hPa WNW 4.8 km/h 12.9 km/h 80 % 0 mm 7 W/m2
05:59 -0.1 °C -3.1 °C 1012.8 hPa WNW 4.8 km/h 12.9 km/h 80 % 0 mm 9 W/m2
06:04 -0.2 °C -3.2 °C 1013.1 hPa WNW 1.6 km/h 8 km/h 80 % 0 mm 12 W/m2
06:09 -0.2 °C -3.2 °C 1013.1 hPa WNW 3.2 km/h 8 km/h 80 % 0 mm 14 W/m2
06:14 -0.3 °C -3.2 °C 1013.1 hPa WNW 4.8 km/h 9.7 km/h 81 % 0 mm 16 W/m2
06:19 -0.3 °C -3.2 °C 1013.1 hPa WNW 6.4 km/h 12.9 km/h 81 % 0 mm 23 W/m2
06:24 -0.2 °C -2.9 °C 1013.1 hPa WNW 4.8 km/h 12.9 km/h 82 % 0 mm 19 W/m2
06:29 -0.2 °C -2.9 °C 1013.1 hPa WNW 4.8 km/h 9.7 km/h 82 % 0 mm 19 W/m2
06:34 -0.2 °C -2.9 °C 1013.1 hPa WNW 4.8 km/h 9.7 km/h 82 % 0 mm 77 W/m2
06:39 -0.1 °C -2.8 °C 1013.1 hPa WNW 6.4 km/h 12.9 km/h 82 % 0 mm 23 W/m2
06:44 0.1 °C -2.8 °C 1013.1 hPa WNW 6.4 km/h 17.7 km/h 81 % 0 mm 23 W/m2
06:49 0.2 °C -2.7 °C 1013.1 hPa WNW 8 km/h 17.7 km/h 81 % 0 mm 25 W/m2
06:54 0.4 °C -2.5 °C 1013.1 hPa WNW 11.3 km/h 19.3 km/h 81 % 0 mm 33 W/m2
06:59 0.6 °C -2.4 °C 1013.1 hPa WNW 11.3 km/h 20.9 km/h 80 % 0 mm 35 W/m2
07:04 0.7 °C -2.3 °C 1013.1 hPa WNW 11.3 km/h 20.9 km/h 80 % 0 mm 42 W/m2
07:09 0.9 °C -2.3 °C 1013.1 hPa WNW 11.3 km/h 20.9 km/h 79 % 0 mm 139 W/m2
07:14 1.3 °C -1.9 °C 1013.1 hPa WNW 12.9 km/h 20.9 km/h 79 % 0 mm 185 W/m2
07:19 1.7 °C -1.7 °C 1013.1 hPa WNW 11.3 km/h 20.9 km/h 78 % 0 mm 199 W/m2
07:24 2.1 °C -1.7 °C 1013.4 hPa NW 11.3 km/h 20.9 km/h 76 % 0 mm 213 W/m2
07:29 2.4 °C -1.6 °C 1013.1 hPa NW 11.3 km/h 20.9 km/h 75 % 0 mm 229 W/m2
07:34 2.7 °C -1.5 °C 1013.4 hPa NW 9.7 km/h 19.3 km/h 74 % 0 mm 241 W/m2
07:39 2.9 °C -1.7 °C 1013.1 hPa WNW 11.3 km/h 20.9 km/h 72 % 0 mm 257 W/m2
07:44 3.1 °C -1.7 °C 1013.4 hPa WNW 12.9 km/h 24.1 km/h 71 % 0 mm 269 W/m2
07:49 3.3 °C -1.7 °C 1013.4 hPa NW 12.9 km/h 24.1 km/h 70 % 0 mm 287 W/m2
07:54 3.6 °C -1.6 °C 1013.4 hPa NW 11.3 km/h 22.5 km/h 69 % 0 mm 299 W/m2
07:59 3.8 °C -1.6 °C 1013.1 hPa NW 11.3 km/h 22.5 km/h 68 % 0 mm 313 W/m2
08:04 4.1 °C -1.5 °C 1013.4 hPa NW 9.7 km/h 20.9 km/h 67 % 0 mm 325 W/m2
08:09 4.2 °C -1.6 °C 1013.4 hPa NW 9.7 km/h 20.9 km/h 66 % 0 mm 343 W/m2
08:14 4.2 °C -1.8 °C 1013.4 hPa WNW 11.3 km/h 22.5 km/h 65 % 0 mm 359 W/m2
08:19 4.4 °C -1.6 °C 1013.4 hPa WNW 12.9 km/h 22.5 km/h 65 % 0 mm 369 W/m2
08:24 4.6 °C -1.6 °C 1013.4 hPa WNW 12.9 km/h 25.7 km/h 64 % 0 mm 383 W/m2
08:30 4.8 °C -1.4 °C 1013.8 hPa WNW 14.5 km/h 25.7 km/h 64 % 0 mm 397 W/m2
08:34 5 °C -1.4 °C 1013.8 hPa NW 12.9 km/h 29 km/h 63 % 0 mm 269 W/m2
08:40 5.1 °C -1.6 °C 1013.8 hPa WNW 14.5 km/h 29 km/h 62 % 0 mm 390 W/m2
08:45 5.2 °C -1.3 °C 1013.8 hPa WNW 14.5 km/h 30.6 km/h 63 % 0 mm 448 W/m2
08:50 5.4 °C -1.3 °C 1013.8 hPa NW 16.1 km/h 32.2 km/h 62 % 0 mm 489 W/m2
08:55 5.6 °C -1.1 °C 1013.8 hPa NW 17.7 km/h 32.2 km/h 62 % 0 mm 429 W/m2
09:00 5.7 °C -1 °C 1013.4 hPa WNW 14.5 km/h 29 km/h 62 % 0 mm 227 W/m2
09:10 6 °C -0.7 °C 1013.8 hPa NW 11.3 km/h 24.1 km/h 62 % 0 mm 517 W/m2
09:15 6.2 °C -0.6 °C 1013.8 hPa NW 14.5 km/h 30.6 km/h 62 % 0 mm 520 W/m2
09:20 6.4 °C -0.3 °C 1013.8 hPa NW 14.5 km/h 30.6 km/h 62 % 0 mm 529 W/m2
09:25 6.7 °C -0.3 °C 1013.8 hPa NW 12.9 km/h 30.6 km/h 61 % 0 mm 550 W/m2
09:30 6.8 °C -0.4 °C 1013.8 hPa NW 12.9 km/h 25.7 km/h 60 % 0 mm 550 W/m2
09:35 7.1 °C -0.4 °C 1013.8 hPa NW 14.5 km/h 25.7 km/h 59 % 0 mm 571 W/m2
09:40 7.2 °C -0.1 °C 1013.8 hPa NW 14.5 km/h 29 km/h 60 % 0 mm 582 W/m2
09:45 7.3 °C -0.2 °C 1013.4 hPa NW 14.5 km/h 32.2 km/h 59 % 0 mm 622 W/m2
09:50 7.2 °C -0.5 °C 1013.4 hPa NNW 16.1 km/h 35.4 km/h 58 % 0 mm 610 W/m2
09:55 7.2 °C -0.5 °C 1013.4 hPa NNW 17.7 km/h 35.4 km/h 58 % 0 mm 619 W/m2
10:00 7.3 °C -0.2 °C 1013.4 hPa NW 17.7 km/h 32.2 km/h 59 % 0 mm 633 W/m2
10:05 7.6 °C 0.1 °C 1013.8 hPa NW 16.1 km/h 33.8 km/h 59 % 0 mm 657 W/m2
10:10 7.8 °C -0.2 °C 1013.8 hPa NW 16.1 km/h 33.8 km/h 57 % 0 mm 693 W/m2
10:15 7.8 °C -0.7 °C 1013.4 hPa NW 19.3 km/h 37 km/h 55 % 0 mm 675 W/m2
10:20 7.8 °C -0.7 °C 1013.4 hPa NW 19.3 km/h 37 km/h 55 % 0 mm 722 W/m2
10:25 7.9 °C -0.3 °C 1013.4 hPa NW 19.3 km/h 37 km/h 56 % 0 mm 759 W/m2
10:30 8.1 °C -0.4 °C 1013.8 hPa NW 17.7 km/h 37 km/h 55 % 0 mm 299 W/m2
10:35 8.1 °C -0.4 °C 1013.8 hPa WNW 16.1 km/h 35.4 km/h 55 % 0 mm 272 W/m2
10:40 7.8 °C -0.7 °C 1013.8 hPa WNW 16.1 km/h 35.4 km/h 55 % 0 mm 383 W/m2
10:45 7.8 °C -0.4 °C 1013.8 hPa NW 14.5 km/h 32.2 km/h 56 % 0 mm 241 W/m2
10:50 7.6 °C -0.6 °C 1013.8 hPa NW 16.1 km/h 35.4 km/h 56 % 0 mm 295 W/m2
10:55 7.4 °C -0.8 °C 1013.8 hPa NW 17.7 km/h 37 km/h 56 % 0 mm 209 W/m2
11:00 7.3 °C -0.4 °C 1013.8 hPa NW 17.7 km/h 37 km/h 58 % 0 mm 253 W/m2
11:05 7.2 °C -0.8 °C 1013.8 hPa NW 19.3 km/h 37 km/h 57 % 0 mm 202 W/m2
11:11 7.1 °C -0.6 °C 1014.1 hPa NW 17.7 km/h 37 km/h 58 % 0 mm 144 W/m2
11:16 6.9 °C -1.1 °C 1014.1 hPa NW 14.5 km/h 30.6 km/h 57 % 0 mm 121 W/m2
11:21 6.8 °C -1.4 °C 1014.1 hPa NW 16.1 km/h 30.6 km/h 56 % 0 mm 155 W/m2
11:26 6.6 °C -1.6 °C 1014.1 hPa NW 16.1 km/h 35.4 km/h 56 % 0 mm 190 W/m2
11:31 6.6 °C -1.6 °C 1014.1 hPa NW 16.1 km/h 35.4 km/h 56 % 0 mm 290 W/m2
11:36 6.8 °C -1.6 °C 1013.8 hPa NW 16.1 km/h 29 km/h 55 % 0 mm 392 W/m2
11:41 7.1 °C -1.3 °C 1013.8 hPa NW 14.5 km/h 29 km/h 55 % 0 mm 297 W/m2
11:46 7.3 °C -1.2 °C 1013.8 hPa NW 11.3 km/h 22.5 km/h 55 % 0 mm 313 W/m2
11:51 7.4 °C -1.3 °C 1013.8 hPa NW 11.3 km/h 22.5 km/h 54 % 0 mm 246 W/m2
11:56 7.6 °C -0.9 °C 1013.8 hPa NW 14.5 km/h 29 km/h 55 % 0 mm 239 W/m2
12:01 7.4 °C -1.1 °C 1014.1 hPa NW 16.1 km/h 33.8 km/h 55 % 0 mm 214 W/m2
12:06 7.3 °C -0.7 °C 1014.1 hPa NW 16.1 km/h 33.8 km/h 57 % 0 mm 186 W/m2
12:11 7.2 °C -0.8 °C 1014.1 hPa NW 16.1 km/h 32.2 km/h 57 % 0 mm 165 W/m2
12:16 7 °C -0.5 °C 1014.1 hPa NW 14.5 km/h 30.6 km/h 59 % 0 mm 167 W/m2
12:21 6.9 °C -0.1 °C 1014.1 hPa NW 14.5 km/h 25.7 km/h 61 % 0 mm 225 W/m2
12:26 6.8 °C -0.2 °C 1014.1 hPa NW 16.1 km/h 30.6 km/h 61 % 0 mm 276 W/m2
12:31 6.9 °C -0.1 °C 1014.1 hPa NW 14.5 km/h 30.6 km/h 61 % 0 mm 338 W/m2
12:36 7.2 °C -0.3 °C 1014.1 hPa NW 14.5 km/h 25.7 km/h 59 % 0 mm 397 W/m2
12:41 7.4 °C -0.1 °C 1013.8 hPa NW 16.1 km/h 25.7 km/h 59 % 0 mm 327 W/m2
12:46 7.6 °C 0.3 °C 1013.8 hPa NW 14.5 km/h 29 km/h 60 % 0 mm 281 W/m2
12:51 7.7 °C 0.4 °C 1013.8 hPa WNW 14.5 km/h 29 km/h 60 % 0 mm 301 W/m2
12:56 7.7 °C 0.4 °C 1013.8 hPa WNW 14.5 km/h 25.7 km/h 60 % 0 mm 272 W/m2
13:01 7.8 °C 0.1 °C 1013.8 hPa NW 12.9 km/h 25.7 km/h 58 % 0 mm 295 W/m2
13:06 7.9 °C 0.4 °C 1013.8 hPa NW 12.9 km/h 29 km/h 59 % 0 mm 462 W/m2
13:16 8 °C 0.9 °C 1014.1 hPa NW 12.9 km/h 35.4 km/h 61 % 0 mm 213 W/m2
13:22 7.7 °C 1.3 °C 1013.8 hPa NW 16.1 km/h 35.4 km/h 64 % 0 mm 494 W/m2
13:27 7.8 °C 1.2 °C 1013.8 hPa NW 14.5 km/h 29 km/h 63 % 0 mm 483 W/m2
13:32 8.3 °C 1.9 °C 1013.8 hPa NW 16.1 km/h 29 km/h 64 % 0 mm 399 W/m2
13:37 8.5 °C 1.2 °C 1013.8 hPa NW 16.1 km/h 29 km/h 60 % 0 mm 411 W/m2
13:42 8.5 °C 1.2 °C 1013.8 hPa NW 16.1 km/h 32.2 km/h 60 % 0 mm 258 W/m2
13:47 8.3 °C 1.2 °C 1013.8 hPa NW 14.5 km/h 32.2 km/h 61 % 0 mm 135 W/m2
13:52 8.1 °C 1.5 °C 1013.8 hPa NW 11.3 km/h 24.1 km/h 63 % 0 mm 299 W/m2
13:57 8 °C 1.2 °C 1013.8 hPa NW 9.7 km/h 20.9 km/h 62 % 0 mm 506 W/m2
14:02 8.2 °C 1.3 °C 1013.4 hPa NW 9.7 km/h 20.9 km/h 62 % 0 mm 352 W/m2
14:07 8.5 °C 1.4 °C 1013.8 hPa NW 11.3 km/h 22.5 km/h 61 % 0 mm 223 W/m2
14:12 8.4 °C 2.2 °C 1013.4 hPa NW 12.9 km/h 24.1 km/h 65 % 0 mm 278 W/m2
14:17 8.6 °C 2.8 °C 1013.4 hPa NW 12.9 km/h 29 km/h 67 % 0 mm 921 W/m2
14:22 9.1 °C 2.2 °C 1013.8 hPa NW 12.9 km/h 29 km/h 62 % 0 mm 925 W/m2
14:27 9.6 °C 1.2 °C 1013.8 hPa NW 14.5 km/h 25.7 km/h 56 % 0 mm 264 W/m2
14:32 9.5 °C 1.6 °C 1013.8 hPa NW 14.5 km/h 25.7 km/h 58 % 0 mm 206 W/m2
14:37 9.1 °C 1.7 °C 1013.8 hPa WNW 14.5 km/h 29 km/h 60 % 0 mm 195 W/m2
14:42 8.6 °C 2.4 °C 1013.8 hPa WNW 19.3 km/h 41.8 km/h 65 % 0 mm 176 W/m2
14:47 7.8 °C 2.7 °C 1013.8 hPa WNW 19.3 km/h 41.8 km/h 70 % 0 mm 868 W/m2
14:52 7.8 °C 3.3 °C 1013.8 hPa WNW 16.1 km/h 29 km/h 73 % 0 mm 939 W/m2
14:57 8 °C 2.8 °C 1013.8 hPa WNW 14.5 km/h 22.5 km/h 70 % 0 mm 121 W/m2
15:02 7.9 °C 3.3 °C 1013.8 hPa WNW 14.5 km/h 22.5 km/h 73 % 0.25 mm 123 W/m2
15:07 7.6 °C 3.3 °C 1013.4 hPa WNW 11.3 km/h 20.9 km/h 74 % 0.25 mm 253 W/m2
15:12 7.6 °C 3.8 °C 1013.8 hPa WNW 11.3 km/h 19.3 km/h 77 % 0.25 mm 984 W/m2
15:17 7.7 °C 3.9 °C 1013.4 hPa WNW 9.7 km/h 19.3 km/h 77 % 0.25 mm 156 W/m2
15:22 7.8 °C 3.7 °C 1014.1 hPa WNW 9.7 km/h 16.1 km/h 75 % 0.25 mm 32 W/m2
15:27 7.6 °C 3.3 °C 1014.1 hPa NW 9.7 km/h 22.5 km/h 74 % 0.25 mm 26 W/m2
15:32 7.1 °C 2.2 °C 1014.1 hPa NNW 9.7 km/h 22.5 km/h 71 % 0.51 mm 60 W/m2
15:42 6.1 °C 2.2 °C 1014.4 hPa North 17.7 km/h 35.4 km/h 76 % 0.51 mm 123 W/m2
15:47 5.8 °C 2.4 °C 1014.4 hPa North 17.7 km/h 35.4 km/h 79 % 0.51 mm 98 W/m2
15:52 5.7 °C 2.3 °C 1014.4 hPa North 11.3 km/h 30.6 km/h 79 % 0.51 mm 72 W/m2
15:57 5.5 °C 1.8 °C 1014.4 hPa NNE 9.7 km/h 20.9 km/h 77 % 0.51 mm 105 W/m2
16:02 5.4 °C 1.7 °C 1014.4 hPa NNE 8 km/h 19.3 km/h 77 % 0.25 mm 144 W/m2
16:07 5.4 °C 1.7 °C 1014.1 hPa North 6.4 km/h 17.7 km/h 77 % 0.25 mm 188 W/m2
16:12 5.5 °C 2.2 °C 1014.4 hPa NNW 6.4 km/h 16.1 km/h 79 % 0.25 mm 218 W/m2
16:17 5.7 °C 2.5 °C 1014.4 hPa NW 4.8 km/h 12.9 km/h 80 % 0.25 mm 253 W/m2
16:22 5.9 °C 2.9 °C 1014.4 hPa WNW 6.4 km/h 14.5 km/h 81 % 0.25 mm 316 W/m2
16:27 6.2 °C 3.2 °C 1014.4 hPa WNW 8 km/h 14.5 km/h 81 % 0.25 mm 628 W/m2
16:33 6.7 °C 3.7 °C 1014.4 hPa NW 8 km/h 14.5 km/h 81 % 0 mm 668 W/m2
16:38 7.2 °C 3.6 °C 1014.4 hPa NW 8 km/h 17.7 km/h 78 % 0 mm 670 W/m2
16:43 7.6 °C 3.6 °C 1014.4 hPa NW 9.7 km/h 19.3 km/h 76 % 0 mm 193 W/m2
16:48 7.6 °C 3.3 °C 1014.4 hPa NW 8 km/h 19.3 km/h 74 % 0 mm 32 W/m2
16:53 7.3 °C 2.8 °C 1014.4 hPa North 8 km/h 33.8 km/h 73 % 0 mm 39 W/m2
17:03 6.6 °C 1.9 °C 1014.4 hPa NNW 9.7 km/h 22.5 km/h 72 % 0 mm 116 W/m2
17:08 6.5 °C 2 °C 1014.4 hPa NNW 6.4 km/h 16.1 km/h 73 % 0 mm 172 W/m2
17:13 6.5 °C 1.8 °C 1014.4 hPa NNW 4.8 km/h 12.9 km/h 72 % 0 mm 163 W/m2
17:18 6.6 °C 1.9 °C 1014.4 hPa NNW 6.4 km/h 16.1 km/h 72 % 0 mm 83 W/m2
17:23 6.6 °C 2.1 °C 1014.8 hPa NNW 6.4 km/h 17.7 km/h 73 % 0 mm 83 W/m2
17:28 6.5 °C 2 °C 1014.4 hPa NNW 9.7 km/h 24.1 km/h 73 % 0 mm 63 W/m2
17:33 6.4 °C 2.1 °C 1014.4 hPa NNW 11.3 km/h 24.1 km/h 74 % 0 mm 114 W/m2
17:38 6.3 °C 2 °C 1014.4 hPa NW 9.7 km/h 22.5 km/h 74 % 0 mm 155 W/m2
17:43 6.3 °C 2 °C 1014.4 hPa NW 8 km/h 22.5 km/h 74 % 0 mm 383 W/m2
17:48 6.7 °C 2.2 °C 1014.4 hPa NW 8 km/h 16.1 km/h 73 % 0 mm 387 W/m2
17:53 7 °C 2.3 °C 1014.4 hPa NNW 8 km/h 17.7 km/h 72 % 0 mm 359 W/m2
17:58 7.4 °C 2.5 °C 1014.4 hPa NNW 8 km/h 17.7 km/h 71 % 0 mm 343 W/m2
18:03 7.5 °C 1.9 °C 1014.4 hPa NNW 8 km/h 19.3 km/h 68 % 0 mm 60 W/m2
18:08 7.4 °C 2.1 °C 1014.4 hPa NNW 8 km/h 24.1 km/h 69 % 0 mm 60 W/m2
18:13 7.2 °C 1.9 °C 1014.4 hPa NNW 8 km/h 24.1 km/h 69 % 0 mm 70 W/m2
18:18 7.1 °C 2.2 °C 1014.8 hPa NW 9.7 km/h 19.3 km/h 71 % 0 mm 72 W/m2
18:23 6.9 °C 2.2 °C 1014.8 hPa NW 11.3 km/h 17.7 km/h 72 % 0 mm 63 W/m2
18:28 6.9 °C 2.6 °C 1014.4 hPa NW 8 km/h 17.7 km/h 74 % 0 mm 253 W/m2
18:29 6.9 °C 2.6 °C 1014.4 hPa NW 8 km/h 17.7 km/h 74 % 0 mm 253 W/m2
18:34 7.2 °C 2.5 °C 1014.4 hPa NNW 11.3 km/h 20.9 km/h 72 % 0 mm 232 W/m2
18:39 7.5 °C 2.6 °C 1014.8 hPa NNW 12.9 km/h 24.1 km/h 71 % 0 mm 218 W/m2
18:44 7.6 °C 2.3 °C 1014.8 hPa NNW 11.3 km/h 24.1 km/h 69 % 0 mm 109 W/m2
18:49 7.6 °C 2.5 °C 1014.8 hPa NNW 8 km/h 22.5 km/h 70 % 0 mm 100 W/m2
18:54 7.4 °C 2.1 °C 1014.8 hPa North 6.4 km/h 19.3 km/h 69 % 0 mm 60 W/m2
18:59 7.4 °C 1.9 °C 1014.8 hPa North 11.3 km/h 22.5 km/h 68 % 0 mm 120 W/m2
19:04 7.4 °C 1.7 °C 1014.8 hPa North 11.3 km/h 32.2 km/h 67 % 0 mm 77 W/m2
19:09 7.3 °C 1.2 °C 1014.8 hPa North 9.7 km/h 32.2 km/h 65 % 0 mm 46 W/m2
19:14 7.2 °C 1.1 °C 1014.8 hPa NNE 11.3 km/h 32.2 km/h 65 % 0 mm 28 W/m2
19:19 7 °C 0.9 °C 1014.8 hPa NNE 11.3 km/h 32.2 km/h 65 % 0 mm 23 W/m2
19:24 6.9 °C 1 °C 1015.1 hPa North 9.7 km/h 25.7 km/h 66 % 0 mm 33 W/m2
19:29 6.8 °C 0.9 °C 1015.1 hPa North 9.7 km/h 25.7 km/h 66 % 0 mm 47 W/m2
19:34 6.8 °C 1.1 °C 1015.1 hPa North 9.7 km/h 25.7 km/h 67 % 0 mm 79 W/m2
19:39 6.8 °C 0.9 °C 1015.5 hPa North 12.9 km/h 33.8 km/h 66 % 0 mm 70 W/m2
19:44 6.7 °C 1.2 °C 1015.5 hPa NNE 14.5 km/h 33.8 km/h 68 % 0 mm 39 W/m2
19:48 6.3 °C 1.2 °C 1015.8 hPa NE 12.9 km/h 32.2 km/h 70 % 0 mm 56 W/m2
19:53 5.9 °C 1.2 °C 1015.8 hPa NE 9.7 km/h 29 km/h 72 % 0 mm 28 W/m2
19:58 5.6 °C 1.1 °C 1015.8 hPa NE 6.4 km/h 19.3 km/h 73 % 0 mm 16 W/m2
20:03 5.4 °C 1.3 °C 1015.8 hPa NE 4.8 km/h 16.1 km/h 75 % 0 mm 12 W/m2
20:08 5.3 °C 1.4 °C 1015.8 hPa NNE 8 km/h 16.1 km/h 76 % 0 mm 9 W/m2
20:13 5.2 °C 1.5 °C 1015.8 hPa NNE 8 km/h 16.1 km/h 77 % 0 mm 5 W/m2
20:18 5.2 °C 1.5 °C 1015.8 hPa NNE 8 km/h 19.3 km/h 77 % 0 mm 5 W/m2
20:23 5.2 °C 1.7 °C 1015.8 hPa NNE 8 km/h 19.3 km/h 78 % 0 mm 0 W/m2
20:28 5.1 °C 1.8 °C 1016.1 hPa North 9.7 km/h 32.2 km/h 79 % 0 mm 0 W/m2
20:33 4.9 °C 1.9 °C 1016.1 hPa North 12.9 km/h 32.2 km/h 81 % 0 mm 0 W/m2
20:38 4.8 °C 2 °C 1016.1 hPa North 9.7 km/h 22.5 km/h 82 % 0 mm 0 W/m2
20:43 4.6 °C 1.6 °C 1016.5 hPa North 9.7 km/h 22.5 km/h 81 % 0 mm 0 W/m2
20:48 4.6 °C 1.6 °C 1016.5 hPa North 11.3 km/h 22.5 km/h 81 % 0 mm 0 W/m2
20:53 4.4 °C 1.2 °C 1016.5 hPa North 11.3 km/h 22.5 km/h 80 % 0 mm 0 W/m2
20:58 4.4 °C 1.2 °C 1016.5 hPa North 11.3 km/h 32.2 km/h 80 % 0 mm 0 W/m2
21:03 4.3 °C 1.2 °C 1016.5 hPa North 8 km/h 32.2 km/h 80 % 0 mm 0 W/m2
21:08 4.3 °C 1.2 °C 1016.5 hPa North 6.4 km/h 20.9 km/h 80 % 0 mm 0 W/m2
21:13 4.2 °C 1.1 °C 1016.8 hPa North 8 km/h 20.9 km/h 80 % 0 mm 0 W/m2
21:18 4.2 °C 1.1 °C 1016.8 hPa North 9.7 km/h 17.7 km/h 80 % 0 mm 0 W/m2
21:23 4.2 °C 1.2 °C 1016.8 hPa North 9.7 km/h 17.7 km/h 81 % 0 mm 0 W/m2
21:28 4.2 °C 1.2 °C 1016.8 hPa North 8 km/h 16.1 km/h 81 % 0 mm 0 W/m2
21:33 4.2 °C 1.2 °C 1016.8 hPa NNW 4.8 km/h 14.5 km/h 81 % 0 mm 0 W/m2
21:38 4.2 °C 1.4 °C 1016.8 hPa NW 3.2 km/h 11.3 km/h 82 % 0 mm 0 W/m2
21:43 4.2 °C 1.4 °C 1016.8 hPa NW 4.8 km/h 12.9 km/h 82 % 0 mm 0 W/m2
21:48 4.2 °C 1.4 °C 1016.8 hPa NW 4.8 km/h 12.9 km/h 82 % 0 mm 0 W/m2
21:53 4.2 °C 1.4 °C 1016.8 hPa NW 3.2 km/h 9.7 km/h 82 % 0 mm 0 W/m2
21:58 4.2 °C 1.4 °C 1016.8 hPa NW 4.8 km/h 16.1 km/h 82 % 0 mm 0 W/m2
22:03 4.3 °C 1.3 °C 1016.8 hPa NW 8 km/h 22.5 km/h 81 % 0 mm 0 W/m2
22:08 4.3 °C 1.3 °C 1016.8 hPa NW 8 km/h 22.5 km/h 81 % 0 mm 0 W/m2
22:13 4.3 °C 1.3 °C 1016.8 hPa NW 11.3 km/h 24.1 km/h 81 % 0 mm 0 W/m2
22:19 4.3 °C 1.3 °C 1016.8 hPa NNW 12.9 km/h 24.1 km/h 81 % 0 mm 0 W/m2
22:23 4.4 °C 1.4 °C 1016.8 hPa North 14.5 km/h 33.8 km/h 81 % 0 mm 0 W/m2
22:28 4.4 °C 1.4 °C 1016.8 hPa North 14.5 km/h 33.8 km/h 81 % 0 mm 0 W/m2
22:33 4.4 °C 1.4 °C 1016.8 hPa North 11.3 km/h 30.6 km/h 81 % 0 mm 0 W/m2
22:39 4.4 °C 1.6 °C 1016.8 hPa North 11.3 km/h 33.8 km/h 82 % 0 mm 0 W/m2
22:43 4.3 °C 1.5 °C 1016.8 hPa North 11.3 km/h 33.8 km/h 82 % 0 mm 0 W/m2
22:49 4.3 °C 1.5 °C 1017.2 hPa NNW 9.7 km/h 32.2 km/h 82 % 0 mm 0 W/m2
22:54 4.3 °C 1.5 °C 1017.2 hPa NNW 9.7 km/h 22.5 km/h 82 % 0 mm 0 W/m2
22:59 4.2 °C 1.6 °C 1016.8 hPa NNW 11.3 km/h 22.5 km/h 83 % 0 mm 0 W/m2
23:04 4.2 °C 1.6 °C 1016.8 hPa NNW 11.3 km/h 24.1 km/h 83 % 0 mm 0 W/m2
23:09 4.2 °C 1.6 °C 1016.8 hPa NNW 9.7 km/h 24.1 km/h 83 % 0 mm 0 W/m2
23:14 4.2 °C 1.6 °C 1016.8 hPa NNW 8 km/h 17.7 km/h 83 % 0 mm 0 W/m2
23:19 4.2 °C 1.6 °C 1017.2 hPa NNW 9.7 km/h 19.3 km/h 83 % 0 mm 0 W/m2
23:24 4.2 °C 1.6 °C 1016.8 hPa NNW 9.7 km/h 22.5 km/h 83 % 0 mm 0 W/m2
23:29 4.2 °C 1.6 °C 1017.2 hPa NNW 9.7 km/h 29 km/h 83 % 0 mm 0 W/m2
23:34 4.2 °C 1.4 °C 1017.2 hPa NNW 11.3 km/h 29 km/h 82 % 0 mm 0 W/m2
23:39 4.2 °C 1.4 °C 1017.2 hPa NNW 11.3 km/h 22.5 km/h 82 % 0 mm 0 W/m2
23:44 4.2 °C 1.4 °C 1017.2 hPa NNW 9.7 km/h 24.1 km/h 82 % 0 mm 0 W/m2
23:49 4.2 °C 1.4 °C 1017.2 hPa NNW 11.3 km/h 25.7 km/h 82 % 0 mm 0 W/m2
23:54 4.2 °C 1.4 °C 1017.2 hPa NNW 12.9 km/h 29 km/h 82 % 0 mm 0 W/m2
23:59 4.2 °C 1.6 °C 1017.5 hPa NNW 12.9 km/h 29 km/h 83 % 0 mm 0 W/m2
Delerius-Weather
Compliments of Weather Underground - 2.25 mb

Data updates at regular intervals.